Total_Precipitation_Accumulation
0.00 0.00 0.00 0.00 0.00 0.00 0.00 0.00 0.00 0.00 0.00 0.00 0.00 0.00 0.00 0.00 0.00 0.00 0.00 0.01 0.04 0.08 0.13 0.20 0.21 0.26 0.32 0.22 0.16 0.14 0.17 0.23 0.28 0.35 0.37 0.45 0.63 0.78 0.94 1.13 1.34 1.45 1.36 1.28
0.00 0.00 0.00 0.00 0.00 0.00 0.00 0.00 0.00 0.00 0.00 0.00 0.00 0.00 0.00 0.00 0.00 0.00 0.00 0.00 0.03 0.07 0.16 0.28 0.30 0.33 0.34 0.26 0.23 0.25 0.31 0.47 0.66 0.91 1.14 1.36 1.58 1.68 1.85 2.03 2.09 2.02 1.86 1.72
0.00 0.00 0.00 0.00 0.00 0.00 0.00 0.00 0.00 0.00 0.00 0.00 0.00 0.00 0.00 0.01 0.01 0.00 0.00 0.00 0.01 0.06 0.12 0.20 0.22 0.29 0.32 0.35 0.37 0.41 0.57 0.91 1.30 1.57 1.83 2.22 2.51 2.55 2.56 2.50 2.41 2.32 2.19 2.04
0.00 0.00 0.00 0.00 0.00 0.00 0.00 0.00 0.00 0.00 0.00 0.00 0.00 0.00 0.01 0.01 0.01 0.01 0.01 0.01 0.01 0.03 0.05 0.09 0.14 0.23 0.28 0.40 0.48 0.57 0.87 1.42 1.85 2.12 2.51 2.93 3.16 3.29 3.29 3.01 2.66 2.32 2.05 1.82
0.00 0.00 0.00 0.00 0.00 0.00 0.00 0.00 0.00 0.00 0.00 0.00 0.00 0.00 0.02 0.03 0.02 0.03 0.04 0.03 0.03 0.04 0.05 0.06 0.12 0.23 0.31 0.45 0.61 0.78 1.11 1.55 2.02 2.56 3.08 3.37 3.51 3.51 3.26 2.77 2.27 1.95 1.75 1.54
0.00 0.00 0.00 0.00 0.00 0.00 0.00 0.00 0.00 0.00 0.00 0.00 0.00 0.01 0.03 0.04 0.04 0.05 0.06 0.07 0.08 0.07 0.08 0.11 0.19 0.31 0.44 0.59 0.72 0.90 1.14 1.51 2.00 2.48 2.86 2.88 2.95 2.87 2.53 2.18 1.96 1.78 1.51 1.22
0.00 0.00 0.00 0.00 0.00 0.00 0.00 0.00 0.00 0.00 0.00 0.00 0.00 0.02 0.05 0.07 0.05 0.05 0.07 0.08 0.11 0.11 0.13 0.19 0.29 0.38 0.56 0.67 0.80 1.00 1.24 1.59 1.89 2.21 2.46 2.50 2.46 2.32 2.05 1.78 1.51 1.26 1.02 0.77
0.00 0.00 0.00 0.00 0.00 0.00 0.00 0.00 0.00 0.00 0.00 0.00 0.02 0.05 0.10 0.08 0.07 0.06 0.06 0.08 0.10 0.13 0.19 0.30 0.38 0.49 0.65 0.77 0.91 1.13 1.37 1.62 1.71 1.75 1.86 1.86 1.79 1.68 1.52 1.23 0.99 0.83 0.67 0.51
0.00 0.00 0.00 0.00 0.00 0.00 0.00 0.00 0.00 0.00 0.00 0.01 0.03 0.10 0.16 0.12 0.08 0.07 0.07 0.09 0.13 0.19 0.26 0.34 0.43 0.54 0.67 0.82 0.96 1.12 1.24 1.36 1.42 1.41 1.36 1.30 1.24 1.13 1.02 0.85 0.69 0.54 0.40 0.30
0.01 0.00 0.00 0.00 0.00 0.00 0.00 0.00 0.00 0.00 0.00 0.01 0.03 0.11 0.17 0.16 0.13 0.11 0.11 0.13 0.18 0.24 0.29 0.35 0.43 0.49 0.53 0.57 0.67 0.74 0.81 0.88 0.92 0.91 0.90 0.86 0.79 0.68 0.59 0.50 0.41 0.32 0.24 0.18
0.01 0.01 0.00 0.00 0.00 0.00 0.00 0.00 0.00 0.00 0.00 0.00 0.03 0.13 0.24 0.32 0.29 0.21 0.18 0.19 0.22 0.26 0.30 0.33 0.37 0.39 0.42 0.43 0.48 0.53 0.58 0.61 0.60 0.57 0.53 0.45 0.40 0.33 0.29 0.26 0.22 0.18 0.16 0.13
0.02 0.02 0.01 0.00 0.00 0.00 0.00 0.00 0.00 0.00 0.00 0.00 0.03 0.22 0.32 0.45 0.47 0.35 0.27 0.27 0.30 0.32 0.35 0.34 0.32 0.30 0.30 0.30 0.31 0.33 0.34 0.34 0.36 0.32 0.26 0.25 0.24 0.22 0.19 0.18 0.17 0.15 0.14 0.13
0.01 0.02 0.04 0.06 0.04 0.02 0.01 0.00 0.00 0.00 0.00 0.01 0.05 0.32 0.47 0.51 0.50 0.43 0.38 0.46 0.56 0.55 0.46 0.36 0.27 0.22 0.22 0.25 0.27 0.28 0.27 0.26 0.25 0.23 0.20 0.21 0.21 0.21 0.20 0.18 0.16 0.14 0.12 0.10
0.01 0.02 0.05 0.15 0.14 0.06 0.03 0.01 0.01 0.01 0.02 0.04 0.11 0.31 0.45 0.52 0.56 0.64 0.81 0.94 0.88 0.70 0.53 0.38 0.29 0.26 0.26 0.29 0.28 0.25 0.24 0.22 0.20 0.20 0.21 0.21 0.20 0.19 0.17 0.14 0.12 0.11 0.11 0.10
0.02 0.04 0.04 0.05 0.06 0.05 0.06 0.04 0.04 0.05 0.06 0.13 0.22 0.36 0.57 0.79 0.93 0.96 1.03 0.94 0.77 0.65 0.56 0.47 0.39 0.35 0.33 0.30 0.27 0.25 0.26 0.25 0.22 0.20 0.20 0.19 0.17 0.15 0.14 0.13 0.12 0.11 0.11 0.09
0.02 0.03 0.04 0.05 0.06 0.06 0.08 0.08 0.09 0.13 0.17 0.26 0.38 0.57 0.84 0.96 1.01 1.06 1.11 1.02 0.85 0.68 0.55 0.52 0.49 0.45 0.40 0.34 0.30 0.27 0.25 0.24 0.22 0.19 0.17 0.16 0.15 0.14 0.12 0.10 0.09 0.07 0.06 0.04
0.03 0.03 0.05 0.06 0.06 0.10 0.19 0.18 0.20 0.24 0.27 0.34 0.50 0.68 0.84 0.91 0.91 0.98 1.05 1.09 0.99 0.80 0.70 0.69 0.71 0.66 0.57 0.48 0.40 0.36 0.33 0.28 0.24 0.23 0.23 0.21 0.18 0.14 0.10 0.07 0.05 0.04 0.03 0.02
0.03 0.04 0.04 0.06 0.09 0.17 0.23 0.16 0.20 0.25 0.30 0.34 0.40 0.52 0.63 0.70 0.71 0.76 0.85 0.94 0.95 0.89 0.89 0.92 0.86 0.78 0.69 0.60 0.52 0.46 0.41 0.36 0.33 0.30 0.25 0.19 0.13 0.09 0.06 0.05 0.04 0.03 0.02 0.02
0.02 0.05 0.06 0.07 0.14 0.24 0.28 0.16 0.14 0.25 0.33 0.31 0.35 0.37 0.39 0.39 0.42 0.53 0.63 0.69 0.74 0.80 0.85 0.85 0.80 0.74 0.68 0.60 0.51 0.44 0.39 0.33 0.27 0.21 0.15 0.11 0.07 0.06 0.05 0.05 0.04 0.03 0.02 0.02
0.02 0.03 0.08 0.10 0.16 0.28 0.29 0.12 0.09 0.21 0.43 0.37 0.33 0.35 0.37 0.42 0.41 0.36 0.40 0.45 0.51 0.56 0.62 0.67 0.66 0.61 0.57 0.48 0.37 0.31 0.27 0.21 0.16 0.11 0.07 0.05 0.04 0.04 0.03 0.03 0.03 0.02 0.02 0.02
0.08 0.09 0.13 0.17 0.24 0.30 0.12 0.06 0.15 0.36 0.49 0.47 0.42 0.39 0.37 0.35 0.32 0.26 0.25 0.27 0.32 0.38 0.44 0.49 0.51 0.48 0.39 0.29 0.22 0.19 0.16 0.13 0.09 0.05 0.04 0.04 0.03 0.03 0.02 0.03 0.03 0.03 0.03 0.04
0.14 0.18 0.20 0.24 0.32 0.36 0.12 0.08 0.21 0.29 0.30 0.38 0.35 0.31 0.25 0.17 0.14 0.16 0.16 0.14 0.15 0.19 0.27 0.32 0.29 0.22 0.17 0.13 0.12 0.12 0.11 0.08 0.06 0.05 0.06 0.04 0.03 0.02 0.03 0.04 0.04 0.04 0.04 0.05
0.07 0.10 0.16 0.24 0.32 0.27 0.11 0.12 0.15 0.16 0.22 0.22 0.20 0.19 0.13 0.07 0.07 0.08 0.09 0.10 0.11 0.13 0.16 0.16 0.13 0.09 0.09 0.09 0.10 0.10 0.08 0.07 0.07 0.07 0.06 0.04 0.02 0.03 0.02 0.03 0.03 0.04 0.05 0.05
0.06 0.02 0.03 0.09 0.18 0.14 0.09 0.07 0.09 0.10 0.14 0.14 0.16 0.19 0.13 0.06 0.04 0.04 0.05 0.06 0.07 0.07 0.08 0.08 0.08 0.08 0.09 0.08 0.07 0.07 0.06 0.06 0.07 0.08 0.06 0.04 0.04 0.04 0.03 0.03 0.02 0.03 0.05 0.04
0.04 0.02 0.02 0.05 0.10 0.11 0.12 0.08 0.05 0.07 0.08 0.11 0.16 0.22 0.18 0.08 0.05 0.04 0.05 0.05 0.05 0.06 0.07 0.08 0.08 0.08 0.05 0.04 0.04 0.03 0.04 0.06 0.08 0.07 0.05 0.05 0.06 0.05 0.05 0.06 0.04 0.02 0.03 0.01
0.02 0.02 0.06 0.10 0.11 0.13 0.14 0.09 0.06 0.11 0.16 0.19 0.24 0.29 0.20 0.12 0.07 0.06 0.06 0.06 0.07 0.07 0.07 0.06 0.06 0.04 0.03 0.02 0.01 0.01 0.02 0.03 0.06 0.06 0.04 0.04 0.04 0.05 0.06 0.09 0.09 0.04 0.01 0.01